Weather History for Sanford, ME

Change the Weather History Date:

Sunday, December 15, 2013

  Actual Average Record
Temperature  
Mean Temperature 14 °F -  
Max Temperature 21 °F 36 °F 60 °F (2008)
Min Temperature 6 °F 19 °F -11 °F (2005)
Degree Days  
Heating Degree Days 52    
Moisture  
Dew Point 9 °F    
Average Humidity 80    
Maximum Humidity 100    
Minimum Humidity 63    
Precipitation  
Precipitation 0.00 in - - ()
Sea Level Pressure  
Sea Level Pressure 29.67 in    
Wind  
Wind Speed 14 mph (North)    
Max Wind Speed 24 mph    
Max Gust Speed 32 mph    
Visibility 4 miles    
Events      
Averages and records for this station are not official NWS values.
T = Trace of Precipitation, MM = Missing Value Source: NWS Daily Summary

Daily Weather History Graph

Daily Weather History Graph

Search for Another Location

Airport:

Trip Planner

Search our weather history database for the weather conditions in past years. The results will help you decide how hot, cold, wet, or windy it might be!

Date:

Astronomy

Dec. 15, 2013 Rise Set
Actual Time 7:08 AM EST 4:07 PM EST
Civil Twilight 6:36 AM EST 4:40 PM EST
Nautical Twilight 5:59 AM EST 5:16 PM EST
Astronomical Twilight 5:25 AM EST 5:51 PM EST
Moon 3:11 PM EST (12/15) 5:19 AM EST (12/15)
Length of Visible Light 10h 04m
Length of Day
8h 58m
Waxing Gibbous, 97% of the Moon is Illuminated
Dec 15
Waxing Gibbous
Dec 17
Full
Dec 25
Last Quarter
Jan 1
New
Jan 7
First Quarter

Hourly Weather History & Observations

Time (EST) Temp. Windchill Dew Point Humidity Pressure Visibility Wind Dir Wind Speed Gust Speed Precip Events Conditions
12:15 AM 10.4 °F -7.7 °F 6.8 °F 85% 30.22 in 0.8 mi NNE 18.4 mph - N/A   Overcast
12:35 AM 10.4 °F -6.0 °F 5.0 °F 79% 30.20 in 1.0 mi NE 15.0 mph - N/A   Overcast
12:55 AM 10.4 °F -6.0 °F 6.8 °F 85% 30.19 in 1.2 mi NNE 15.0 mph - N/A   Overcast
1:15 AM 10.4 °F -6.6 °F 8.6 °F 92% 30.15 in 1.0 mi NNE 16.1 mph - N/A   Overcast
1:35 AM 10.4 °F -6.6 °F 5.0 °F 79% 30.16 in 0.8 mi NNE 16.1 mph - N/A   Overcast
1:55 AM 10.4 °F -6.6 °F 8.6 °F 92% 30.14 in 0.8 mi NNE 16.1 mph - N/A   Overcast
2:15 AM 10.4 °F -6.6 °F 5.0 °F 79% 30.10 in 0.5 mi NNE 16.1 mph - N/A   Overcast
2:35 AM 10.4 °F -5.4 °F 8.6 °F 92% 30.09 in 0.8 mi NNE 13.8 mph - N/A   Overcast
2:55 AM 10.4 °F -6.6 °F 6.8 °F 85% 30.06 in 0.5 mi NNE 16.1 mph - N/A   Overcast
3:15 AM 10.4 °F -6.6 °F 3.2 °F 73% 30.03 in 0.5 mi NNE 16.1 mph - N/A   Overcast
3:35 AM 10.4 °F -6.6 °F 8.6 °F 92% 30.00 in 0.2 mi NNE 16.1 mph - N/A   Overcast
3:55 AM 10.4 °F -6.0 °F 3.2 °F 73% 29.97 in 0.2 mi NNE 15.0 mph 20.7 mph N/A   Overcast
4:15 AM 10.4 °F -7.2 °F 10.4 °F 100% 29.93 in 0.2 mi NNE 17.3 mph 23.0 mph N/A   Overcast
4:35 AM 10.4 °F -6.6 °F 3.2 °F 73% 29.92 in 0.5 mi NNE 16.1 mph 21.9 mph N/A   Overcast
4:55 AM 10.4 °F -6.6 °F 6.8 °F 85% 29.89 in 0.5 mi NNE 16.1 mph 23.0 mph N/A   Overcast
5:15 AM 10.4 °F -7.7 °F 8.6 °F 92% 29.83 in 0.5 mi NNE 18.4 mph 25.3 mph N/A   Overcast
5:35 AM 10.4 °F -9.1 °F 3.2 °F 73% 29.80 in 0.5 mi NNE 21.9 mph - N/A   Overcast
5:55 AM 10.4 °F -7.7 °F 8.6 °F 92% 29.77 in 0.5 mi NNE 18.4 mph 23.0 mph N/A   Overcast
6:15 AM 12.2 °F -4.3 °F 6.8 °F 79% 29.73 in 0.5 mi NNE 16.1 mph - N/A   Overcast
6:35 AM 12.2 °F -5.3 °F 6.8 °F 79% 29.72 in 0.5 mi NNE 18.4 mph 24.2 mph N/A   Overcast
6:55 AM 12.2 °F -5.3 °F 10.4 °F 92% 29.72 in 0.8 mi NNE 18.4 mph 21.9 mph N/A   Overcast
7:15 AM 12.2 °F -5.3 °F 3.2 °F 67% 29.68 in 0.2 mi NNE 18.4 mph 25.3 mph N/A   Overcast
7:35 AM 12.2 °F -6.3 °F 12.2 °F 100% 29.65 in 0.2 mi NNE 20.7 mph 26.5 mph N/A   Overcast
7:55 AM 12.2 °F -6.7 °F 8.6 °F 85% 29.61 in 0.2 mi NNE 21.9 mph 25.3 mph N/A   Overcast
8:15 AM 12.2 °F -6.3 °F 3.2 °F 67% 29.58 in 0.5 mi NNE 20.7 mph 27.6 mph N/A   Overcast
8:35 AM 12.2 °F -5.8 °F 8.6 °F 85% 29.57 in 0.8 mi North 19.6 mph 28.8 mph N/A   Overcast
8:55 AM 12.2 °F -4.3 °F 3.2 °F 67% 29.55 in 0.5 mi North 16.1 mph 29.9 mph N/A   Overcast
9:15 AM 14.0 °F -2.0 °F 14.0 °F 100% 29.53 in 0.8 mi North 16.1 mph 27.6 mph N/A   Overcast
9:35 AM 14.0 °F -5.1 °F 5.0 °F 67% 29.48 in 0.8 mi North 24.2 mph 31.1 mph N/A   Overcast
9:55 AM 14.0 °F -4.3 °F 12.2 °F 93% 29.48 in 1.0 mi North 21.9 mph 28.8 mph N/A   Overcast
10:15 AM 14.0 °F -3.9 °F 6.8 °F 73% 29.46 in 1.0 mi North 20.7 mph 32.2 mph N/A   Overcast
10:35 AM 15.8 °F -0.6 °F 10.4 °F 79% 29.45 in 1.2 mi North 18.4 mph 29.9 mph N/A   Overcast
10:55 AM 14.0 °F -4.3 °F 6.8 °F 73% 29.44 in 1.0 mi North 21.9 mph 29.9 mph N/A   Overcast
11:15 AM 15.8 °F -1.9 °F 12.2 °F 86% 29.42 in 0.8 mi North 21.9 mph 31.1 mph N/A   Overcast
11:35 AM 15.8 °F -0.2 °F 8.6 °F 73% 29.41 in 1.0 mi NNW 17.3 mph 32.2 mph N/A   Overcast
11:55 AM 17.6 °F 3.7 °F 10.4 °F 73% 29.40 in 0.5 mi North 13.8 mph 24.2 mph N/A   Overcast
12:15 PM 17.6 °F 3.2 °F 15.8 °F 93% 29.39 in 3.0 mi NNW 15.0 mph 26.5 mph N/A   Overcast
12:35 PM 19.4 °F 5.5 °F 10.4 °F 68% 29.39 in 2.5 mi NNW 15.0 mph 25.3 mph N/A   Overcast
12:55 PM 19.4 °F 6.6 °F 14.0 °F 80% 29.40 in 3.0 mi NNW 12.7 mph 21.9 mph N/A   Overcast
1:15 PM 19.4 °F 6.0 °F 14.0 °F 80% 29.41 in 2.0 mi North 13.8 mph 20.7 mph N/A   Overcast
1:35 PM 19.4 °F 6.6 °F 10.4 °F 68% 29.42 in 1.8 mi NNW 12.7 mph 17.3 mph N/A   Overcast
1:55 PM 19.4 °F 7.2 °F 15.8 °F 86% 29.43 in 0.8 mi NNW 11.5 mph 18.4 mph N/A   Overcast
2:15 PM 19.4 °F 6.6 °F 12.2 °F 74% 29.45 in 1.8 mi NNW 12.7 mph 18.4 mph N/A   Overcast
2:35 PM 21.2 °F 10.1 °F 14.0 °F 74% 29.46 in 3.0 mi NNW 10.4 mph - N/A   Overcast
2:55 PM 21.2 °F 10.1 °F 15.8 °F 80% 29.47 in 10.0 mi North 10.4 mph 17.3 mph N/A   Overcast
3:15 PM 21.2 °F 10.1 °F 10.4 °F 63% 29.48 in 1.2 mi NNW 10.4 mph - N/A   Overcast
3:35 PM 21.2 °F 11.7 °F 15.8 °F 80% 29.50 in 10.0 mi NNW 8.1 mph - N/A   Overcast
3:55 PM 21.2 °F 14.9 °F 10.4 °F 63% 29.52 in 10.0 mi WNW 4.6 mph - N/A   Overcast
4:15 PM 21.2 °F - 15.8 °F 80% 29.52 in 10.0 mi Calm Calm - N/A   Overcast
4:35 PM 21.2 °F - 12.2 °F 68% 29.53 in 10.0 mi Calm Calm - N/A   Overcast
4:55 PM 21.2 °F - 15.8 °F 80% 29.55 in 10.0 mi Calm Calm - N/A   Overcast
5:15 PM 21.2 °F - 15.8 °F 80% 29.54 in 10.0 mi Calm Calm - N/A   Overcast
5:35 PM 21.2 °F 16.4 °F 15.8 °F 80% 29.55 in 10.0 mi SSE 3.5 mph - N/A   Overcast
5:55 PM 19.4 °F 14.3 °F 12.2 °F 74% 29.56 in 10.0 mi SSE 3.5 mph - N/A   Mostly Cloudy
6:15 PM 17.6 °F - 14.0 °F 86% 29.57 in 10.0 mi Calm Calm - N/A   Mostly Cloudy
6:35 PM 15.8 °F - 10.4 °F 79% 29.58 in 10.0 mi Calm Calm - N/A   Partly Cloudy
6:55 PM 12.2 °F 6.1 °F 10.4 °F 92% 29.58 in 10.0 mi SSE 3.5 mph - N/A   Clear
7:15 PM 8.6 °F - 1.4 °F 73% 29.58 in 10.0 mi Calm Calm - N/A   Clear
7:35 PM 8.6 °F - 1.4 °F 73% 29.60 in 10.0 mi Calm Calm - N/A   Clear
7:55 PM 8.6 °F -1.3 °F -0.4 °F 67% 29.60 in 10.0 mi SW 5.8 mph - N/A   Clear
8:15 PM 6.8 °F -2.0 °F 3.2 °F 85% 29.61 in 10.0 mi SSW 4.6 mph - N/A   Clear
8:35 PM 8.6 °F 0.1 °F 3.2 °F 79% 29.60 in 10.0 mi SW 4.6 mph - N/A   Clear
8:55 PM 12.2 °F - 10.4 °F 92% 29.61 in 10.0 mi Calm Calm - N/A   Clear
9:15 PM 8.6 °F 2.0 °F 6.8 °F 92% 29.62 in 10.0 mi WSW 3.5 mph - N/A   Clear
9:35 PM 15.8 °F 8.6 °F 10.4 °F 79% 29.63 in 10.0 mi West 4.6 mph - N/A   Clear
9:55 PM 12.2 °F 4.3 °F 10.4 °F 92% 29.64 in 10.0 mi WSW 4.6 mph - N/A   Clear
10:15 PM 15.8 °F 5.1 °F 8.6 °F 73% 29.64 in 10.0 mi WSW 8.1 mph - N/A   Clear
10:35 PM 17.6 °F 12.3 °F 12.2 °F 79% 29.64 in 10.0 mi SW 3.5 mph - N/A   Clear
10:55 PM 15.8 °F 6.1 °F 10.4 °F 79% 29.65 in 10.0 mi WSW 6.9 mph - N/A   Clear
11:15 PM 15.8 °F 6.1 °F 8.6 °F 73% 29.65 in 10.0 mi SW 6.9 mph - N/A   Clear
11:35 PM 17.6 °F 8.2 °F 15.8 °F 93% 29.65 in 10.0 mi SW 6.9 mph - N/A   Clear
11:55 PM 17.6 °F 12.3 °F 8.6 °F 68% 29.65 in 10.0 mi SSW 3.5 mph - N/A   Clear